Date,TemperatureHighF,TemperatureAvgF,TemperatureLowF,DewpointHighF,DewpointAvgF,DewpointLowF,HumidityHigh,HumidityAvg,HumidityLow,PressureMaxIn,PressureMinIn,WindSpeedMaxMPH,WindSpeedAvgMPH,GustSpeedMaxMPH,PrecipitationSumIn
2014-1-1,38.3,21.2,8.6,6.5,-1.3,-10.6,43,36,26,29.27,29.27,0,0,0,0.00
2014-1-2,19.2,10.0,3.7,-4.6,-11.0,-15.6,38,35,30,29.27,29.27,0,0,0,0.00
2014-1-3,38.1,23.9,4.6,8.7,-1.7,-16.8,38,31,29,29.27,29.27,0,0,0,0.00
2014-1-4,42.1,29.0,15.8,14.2,4.5,-2.2,46,35,29,29.27,29.27,0,0,0,0.00
2014-1-5,15.8,9.7,-0.8,-1.1,-5.8,-14.5,47,47,46,29.27,29.27,0,0,0,0.00
2014-1-6,6.8,-0.5,-8.1,-8.2,-14.2,-20.6,47,47,47,29.27,29.27,0,0,0,0.00
2014-1-7,24.6,5.7,-1.3,4.8,-9.1,-14.9,47,47,42,29.27,29.27,0,0,0,0.00
2014-1-8,24.6,24.1,24.1,5.0,4.9,4.5,43,43,42,29.27,29.27,0,0,0,0.00
2014-1-9,24.1,24.1,24.1,4.9,4.9,4.9,43,43,43,29.27,29.27,0,0,0,0.00
2014-1-10,24.1,24.1,24.1,4.9,4.9,4.9,43,43,43,29.27,29.27,0,0,0,0.00
2014-1-11,24.1,24.1,24.1,4.9,4.9,4.9,43,43,43,29.27,29.27,0,0,0,0.00
2014-1-12,24.1,24.1,24.1,4.9,4.9,4.9,43,43,43,29.27,29.27,0,0,0,0.00
2014-1-13,24.1,24.1,24.1,4.9,4.9,4.9,43,43,43,29.27,29.27,0,0,0,0.00
2014-1-14,24.1,24.1,24.1,4.9,4.9,4.9,43,43,43,29.27,29.27,0,0,0,0.00
2014-1-15,24.1,24.1,24.1,4.9,4.9,4.9,43,43,43,29.27,29.27,0,0,0,0.00
2014-1-16,24.1,24.1,24.1,4.9,4.9,4.9,43,43,43,29.27,29.27,0,0,0,0.00
2014-1-17,24.1,24.1,24.1,4.9,4.9,4.9,43,43,43,29.27,29.27,0,0,0,0.00
2014-1-18,24.1,24.1,24.1,4.9,4.9,4.9,43,43,43,29.27,29.27,0,0,0,0.00
2014-1-19,24.1,24.1,24.1,4.9,4.9,4.9,43,43,43,29.27,29.27,0,0,0,0.00
2014-1-20,24.1,24.1,24.1,4.9,4.9,4.9,43,43,43,29.27,29.27,0,0,0,0.00
2014-1-21,24.1,24.1,24.1,4.9,4.9,4.9,43,43,43,29.27,29.27,0,0,0,0.00
2014-1-22,24.1,24.1,24.1,4.9,4.9,4.9,43,43,43,29.27,29.27,0,0,0,0.00
2014-1-23,24.1,24.1,24.1,4.9,4.9,4.9,43,43,43,29.27,29.27,0,0,0,0.00
2014-1-24,33.3,27.7,15.3,4.9,-1.7,-13.5,43,29,20,29.27,29.27,0,0,0,0.00
2014-1-25,34.7,33.1,29.7,7.2,-2.0,-3.1,31,22,20,29.27,29.27,0,0,0,0.00
2014-1-26,35.1,34.0,29.3,11.4,5.3,-6.1,38,29,20,29.27,29.27,0,0,0,0.00
2014-1-27,29.3,13.6,10.2,-6.1,-16.6,-18.9,23,22,20,29.27,29.27,0,0,0,0.00
2014-1-28,12.0,12.0,12.0,-17.5,-17.5,-17.5,22,22,22,29.27,29.27,0,0,0,0.00
2014-1-29,12.0,12.0,12.0,-17.5,-17.5,-17.5,22,22,22,29.27,29.27,0,0,0,0.00
2014-1-30,12.0,12.0,12.0,-17.5,-17.5,-17.5,22,22,22,29.27,29.27,0,0,0,0.00
2014-1-31,12.0,12.0,12.0,-17.5,-17.5,-17.5,22,22,22,29.27,29.27,0,0,0,0.00
2014-2-1,12.0,12.0,12.0,-17.5,-17.5,-17.5,22,22,22,29.27,29.27,0,0,0,0.00
2014-2-2,12.0,12.0,12.0,-17.5,-17.5,-17.5,22,22,22,29.27,29.27,0,0,0,0.00
2014-2-3,12.0,12.0,12.0,-17.5,-17.5,-17.5,22,22,22,29.27,29.27,0,0,0,0.00
2014-2-4,12.0,12.0,12.0,-17.5,-17.5,-17.5,22,22,22,29.27,29.27,0,0,0,0.00
2014-2-5,12.0,12.0,12.0,-17.5,-17.5,-17.5,22,22,22,29.27,29.27,0,0,0,0.00
2014-2-6,12.0,12.0,12.0,-17.5,-17.5,-17.5,22,22,22,29.27,29.27,0,0,0,0.00
2014-2-7,16.7,13.6,12.0,-4.7,-13.1,-17.5,38,27,22,29.27,29.27,0,0,0,0.00
2014-2-8,22.1,20.2,16.0,4.5,2.0,-5.1,46,44,37,29.27,29.27,0,0,0,0.00
2014-2-9,25.3,20.8,12.2,7.8,2.7,-7.2,47,44,38,29.27,29.27,0,0,0,0.00
2014-2-10,15.1,11.8,8.6,-5.9,-9.7,-15.4,39,35,29,29.27,29.27,0,0,0,0.00
2014-2-11,28.8,12.4,1.6,-0.3,-13.7,-20.9,34,27,22,29.27,29.27,0,0,0,0.00
2014-2-12,35.2,25.1,10.0,6.9,-1.7,-17.5,34,30,24,29.27,29.27,0,0,0,0.00
2014-2-13,48.0,42.5,36.7,15.7,13.1,11.1,36,30,27,29.27,29.27,0,0,0,0.00
2014-2-14,33.4,27.0,21.7,6.2,3.4,1.4,42,36,31,29.27,29.27,0,0,0,0.00
2014-2-15,39.2,29.3,16.2,10.4,7.2,-0.7,53,40,30,29.27,29.27,0,0,0,0.00
2014-2-16,41.4,40.2,39.2,15.8,12.8,10.4,35,32,30,29.27,29.27,0,0,0,0.00
2014-2-17,57.6,43.4,34.9,15.8,12.0,0.0,35,29,15,29.27,29.27,0,0,0,0.00
2014-2-18,67.8,53.8,43.9,18.5,10.5,6.2,23,18,14,29.27,29.27,0,0,0,0.00
2014-2-19,57.2,44.8,31.1,17.2,9.5,3.3,40,25,16,29.27,29.27,0,0,0,0.00
2014-2-20,52.3,43.4,36.5,29.6,17.5,1.3,69,37,16,29.27,29.27,0,0,0,0.00
2014-2-21,60.1,42.2,27.7,15.1,6.4,-2.3,41,24,14,29.27,29.27,0,0,0,0.00
2014-2-22,60.1,40.7,26.4,23.4,10.5,5.3,49,30,17,29.27,29.27,0,0,0,0.00
2014-2-23,37.9,30.7,25.9,6.8,-1.0,-5.4,33,25,20,29.27,29.27,0,0,0,0.00
2014-2-24,42.3,32.3,25.3,5.2,-1.9,-5.4,29,22,18,29.27,29.27,0,0,0,0.00
2014-2-25,28.9,23.7,15.8,4.5,-1.6,-9.0,43,32,24,29.27,29.27,0,0,0,0.00
2014-2-26,31.8,21.2,9.3,-0.2,-8.2,-16.0,33,25,20,29.27,29.27,0,0,0,0.00
2014-2-27,36.0,26.5,20.1,4.2,-3.2,-8.3,44,27,19,29.27,29.27,0,0,0,0.00
2014-2-28,55.4,36.9,22.3,15.2,2.6,-9.6,34,23,17,29.27,29.27,0,0,0,0.00
2014-3-1,33.3,21.4,8.8,11.2,1.6,-7.0,49,41,32,29.27,29.27,0,0,0,0.00
2014-3-2,8.8,5.0,3.2,-7.0,-10.1,-11.6,46,46,46,29.27,29.27,0,0,0,0.00
2014-3-3,22.8,10.4,-2.7,-2.8,-11.5,-16.5,46,35,22,29.27,29.27,0,0,0,0.00
2014-3-4,42.6,27.5,12.2,7.4,-0.7,-9.7,35,29,23,29.27,29.27,0,0,0,0.00
2014-3-5,46.2,33.4,26.8,16.0,10.6,5.7,49,39,25,29.27,29.27,0,0,0,0.00
2014-3-6,52.5,36.4,21.0,24.4,13.3,7.4,62,40,23,29.27,29.27,0,0,0,0.00
2014-3-7,66.4,47.1,34.9,21.4,17.3,13.1,47,33,15,29.27,29.27,0,0,0,0.00
2014-3-8,43.0,34.2,27.5,15.0,8.9,4.9,44,35,26,29.27,29.27,0,0,0,0.00
2014-3-9,63.5,43.2,22.6,18.6,11.2,6.1,55,31,16,29.27,29.27,0,0,0,0.00
2014-3-10,77.7,58.5,43.3,23.0,13.3,5.0,21,17,13,29.27,29.27,0,0,0,0.00
2014-3-11,81.7,57.0,37.6,30.3,19.8,9.7,52,25,13,29.27,29.27,0,0,0,0.00
2014-3-12,56.3,42.7,32.9,21.1,11.2,2.3,51,29,17,29.27,29.27,0,0,0,0.00
2014-3-13,70.5,51.6,32.0,19.9,13.6,4.5,40,24,14,29.27,29.27,0,0,0,0.00
2014-3-14,68.2,55.5,40.8,18.8,11.8,2.5,21,17,15,29.27,29.27,0,0,0,0.00
2014-3-15,75.0,53.6,32.4,37.9,16.8,2.1,57,26,13,29.27,29.27,0,0,0,0.00
2014-3-16,47.1,36.5,27.1,32.5,10.3,-2.8,57,35,20,29.27,29.27,0,0,0,0.00
2014-3-17,56.3,38.0,21.4,13.4,6.9,-1.7,44,29,17,29.27,29.27,0,0,0,0.00
2014-3-18,65.8,52.2,41.7,21.3,14.1,6.7,31,22,15,29.27,29.27,0,0,0,0.00
2014-3-19,58.5,44.6,35.6,18.5,12.0,3.0,49,28,17,29.27,29.27,0,0,0,0.00
2014-3-20,72.5,52.3,33.3,20.6,13.4,7.8,37,23,14,29.27,29.27,0,0,0,0.00
2014-3-21,64.4,55.4,45.1,17.1,12.2,6.4,27,18,15,29.27,29.27,0,0,0,0.00
2014-3-22,48.4,38.3,28.6,13.4,5.1,-3.6,39,25,16,29.27,29.27,0,0,0,0.00
2014-3-23,45.9,31.6,22.1,10.6,3.4,-3.8,52,32,17,29.27,29.27,0,0,0,0.00
2014-3-24,38.8,33.0,28.2,21.2,7.4,-4.3,53,35,21,29.27,29.27,0,0,0,0.00
2014-3-25,45.5,34.0,27.5,18.1,4.4,-5.5,59,30,17,29.27,29.27,0,0,0,0.00
2014-3-26,60.3,40.8,26.8,33.9,12.1,-4.6,71,34,17,29.27,29.27,0,0,0,0.00
2014-3-27,73.2,53.1,39.2,38.5,26.4,12.2,69,38,14,29.27,29.27,0,0,0,0.00
2014-3-28,39.4,36.6,34.2,20.8,15.3,12.4,47,42,33,29.27,29.27,0,0,0,0.00